Location: Bothwell
(41.7170°N, 112.2589°W)
Time: 03:23:57
(UTC+00:00)

Vanguard 2 - Pass Details

Date: 19 May 2026
Orbit: 553 x 2894 km, 32.9° (Epoch: 10 June)

Event Time Altitude Azimuth Distance (km) Brightness Sun altitude
Exits shadow 08:59:08 27° 232° (SW) 4,253 10.8 -24.8°
Maximum altitude 09:09:47 59° 167° (SSE) 3,214 10.3 -23.9°
Drops below altitude 10° 09:25:51 10° 94° (E) 5,273 12.1 -22.5°
Sets 09:29:35 0° 91° (E) 6,067 12.5 -22.1°
